GW0785 Weather Reports


Display with metric or nautical units.
time (UTC)temp
F
wind
direction
speed
MPH
gust
MPH
rain 1hr
in
rain 24hr
in
rain mn
in
humidity
%
barometer
mb
20260507234131 55 270 8.0 16.0 0.00 0.00 0.30 68 996.2
20260507233621 55 203 10.0 16.0 0.00 0.00 0.30 68 996.3
20260507232601 55 225 7.0 18.0 0.00 0.00 0.30 68 996.4
20260507231541 55 180 8.0 17.0 0.00 0.00 0.30 67 996.1
20260507231031 55 270 7.0 15.0 0.00 0.00 0.30 67 996.1
20260507230521 55 225 8.0 15.0 0.00 0.00 0.30 66 996.1
20260507230014 55 180 5.0 14.0 0.00 0.00 0.30 67 995.9
20260507225500 56 270 7.0 14.0 0.00 0.00 0.30 67 996.1
20260507224950 56 203 7.0 13.0 0.00 0.00 0.30 66 995.8
20260507224440 56 180 7.0 17.0 0.00 0.00 0.30 66 995.6
20260507223930 56 248 8.0 17.0 0.00 0.00 0.30 65 995.5
20260507223420 56 293 7.0 17.0 0.00 0.00 0.30 65 995.6
20260507222909 56 270 8.0 15.0 0.00 0.00 0.30 65 995.3
20260507222359 56 270 7.0 15.0 0.00 0.00 0.30 65 995.0
20260507221339 56 270 4.0 11.0 0.00 0.00 0.30 66 994.7
20260507220318 56 270 6.0 15.0 0.00 0.00 0.30 64 994.4
20260507215809 57 158 5.0 15.0 0.00 0.00 0.30 64 994.2
20260507215300 57 270 6.0 11.0 0.00 0.00 0.30 64 993.9
20260507214749 56 248 4.0 13.0 0.00 0.00 0.30 65 994.3
20260507214239 57 248 8.0 13.0 0.00 0.00 0.30 64 994.1
20260507213729 57 248 4.0 16.0 0.00 0.00 0.30 65 993.8
20260507213218 57 225 8.0 16.0 0.00 0.00 0.30 64 993.6
20260507212708 57 270 4.0 11.0 0.00 0.00 0.30 64 993.4
20260507212158 57 270 9.0 15.0 0.00 0.00 0.30 64 993.6
20260507211647 57 293 8.0 15.0 0.00 0.00 0.30 64 994.0
20260507211139 57 225 7.0 15.0 0.00 0.00 0.30 64 993.9
20260507205608 57 248 5.0 14.0 0.00 0.00 0.30 65 994.3
20260507205057 57 270 5.0 15.0 0.00 0.00 0.30 64 994.5
20260507204547 57 203 5.0 15.0 0.00 0.00 0.30 65 994.2
20260507204037 57 248 4.0 13.0 0.00 0.00 0.30 66 994.3
20260507203528 57 225 4.0 15.0 0.00 0.00 0.30 66 994.2
20260507203016 57 270 4.0 15.0 0.00 0.00 0.30 66 994.6
20260507202507 57 270 5.0 16.0 0.00 0.00 0.30 66 994.6
20260507201446 57 225 6.0 16.0 0.00 0.00 0.30 66 994.7
20260507200936 58 203 8.0 20.0 0.00 0.00 0.30 66 994.2
20260507200427 58 270 10.0 20.0 0.00 0.00 0.30 65 994.0
20260507195406 58 135 7.0 17.0 0.00 0.00 0.30 66 993.9
20260507194856 58 203 8.0 20.0 0.00 0.00 0.30 66 993.8
20260507194346 58 225 8.0 20.0 0.00 0.00 0.30 65 993.6
20260507193836 58 248 5.0 16.0 0.00 0.00 0.30 66 993.5
20260507193326 58 248 8.0 17.0 0.00 0.00 0.30 65 993.3
20260507192816 58 248 8.0 17.0 0.00 0.00 0.30 66 993.2
20260507192306 58 315 8.0 20.0 0.00 0.00 0.30 65 992.9
20260507191755 58 203 12.0 20.0 0.00 0.00 0.30 64 992.8
20260507191245 58 203 11.0 18.0 0.00 0.00 0.30 64 992.7
20260507190735 58 248 5.0 14.0 0.00 0.00 0.30 65 992.9
20260507190225 58 248 7.0 17.0 0.00 0.00 0.30 66 993.1
20260507184654 58 248 7.0 18.0 0.00 0.00 0.30 64 993.2
20260507184145 59 180 10.0 18.0 0.00 0.00 0.30 62 993.0
20260507183634 59 315 8.0 18.0 0.00 0.00 0.30 62 993.3
20260507183124 59 293 8.0 18.0 0.00 0.00 0.30 61 993.4
20260507182624 59 248 11.0 18.0 0.00 0.00 0.30 61 993.5
20260507182101 59 270 6.0 16.0 0.00 0.00 0.30 60 994.1
20260507180534 59 338 7.0 16.0 0.00 0.00 0.30 60 994.3
20260507180024 59 180 9.0 16.0 0.00 0.00 0.30 59 994.5
20260507175513 59 180 6.0 16.0 0.00 0.00 0.30 60 994.4
20260507175004 60 203 8.0 16.0 0.00 0.00 0.30 59 994.5
20260507173434 60 225 8.0 16.0 0.00 0.00 0.30 60 994.9
20260507172923 60 225 6.0 16.0 0.00 0.00 0.30 60 994.4
20260507172413 60 225 8.0 16.0 0.00 0.00 0.30 59 994.8
20260507171902 59 203 10.0 16.0 0.00 0.00 0.30 59 994.5
20260507170843 59 203 8.0 20.0 0.00 0.00 0.30 60 994.5
20260507170332 59 248 8.0 16.0 0.00 0.00 0.30 59 994.5
20260507165312 59 270 4.0 14.0 0.00 0.00 0.30 60 994.4
20260507164802 59 248 8.0 14.0 0.00 0.00 0.30 59 994.4
20260507164252 59 225 7.0 14.0 0.00 0.00 0.30 60 994.0
20260507163742 59 180 8.0 14.0 0.00 0.00 0.30 59 994.4
20260507163232 58 248 5.0 14.0 0.00 0.00 0.30 61 994.5
20260507162722 58 293 4.0 14.0 0.00 0.00 0.30 62 994.5
20260507162212 58 180 4.0 16.0 0.00 0.00 0.30 61 994.5
20260507161702 58 203 7.0 16.0 0.00 0.00 0.30 62 994.6
20260507161152 58 270 8.0 16.0 0.00 0.00 0.30 61 994.6
20260507155621 58 270 6.0 14.0 0.00 0.00 0.30 63 994.9
20260507155111 58 158 3.0 9.0 0.00 0.00 0.30 65 995.1
20260507154601 57 225 4.0 11.0 0.00 0.00 0.30 65 995.1
20260507154051 57 315 6.0 11.0 0.00 0.00 0.30 64 995.2
20260507153541 57 270 4.0 9.0 0.00 0.00 0.30 66 995.5
20260507152010 57 270 3.0 11.0 0.00 0.00 0.30 67 995.2
20260507151500 57 248 5.0 11.0 0.00 0.00 0.30 66 994.7
20260507150950 57 203 5.0 11.0 0.00 0.00 0.30 66 994.5
20260507150440 57 203 4.0 9.0 0.00 0.00 0.30 66 994.7
20260507145930 57 315 4.0 11.0 0.00 0.00 0.30 66 995.0
20260507145420 57 248 2.0 11.0 0.00 0.00 0.30 66 995.2
20260507144910 57 225 2.0 11.0 0.00 0.00 0.30 66 995.0
20260507144359 56 225 3.0 11.0 0.00 0.00 0.30 68 995.0
20260507143849 56 225 3.0 11.0 0.00 0.00 0.30 68 994.9
20260507142830 56 225 2.0 13.0 0.00 0.00 0.30 68 995.0
20260507142321 56 225 2.0 11.0 0.00 0.00 0.30 68 995.0
20260507141259 57 248 2.0 8.0 0.00 0.00 0.30 68 995.1
20260507140750 56 270 4.0 9.0 0.00 0.00 0.30 68 995.1
20260507135218 56 270 4.0 13.0 0.00 0.00 0.30 68 994.9
20260507134708 56 248 6.0 13.0 0.00 0.00 0.30 68 995.0
20260507133647 56 293 3.0 7.0 0.00 0.00 0.30 69 995.1
20260507133137 57 225 4.0 9.0 0.00 0.00 0.30 68 994.9
20260507132118 57 270 5.0 14.0 0.00 0.00 0.30 69 995.1
20260507131607 57 248 5.0 14.0 0.00 0.00 0.30 67 994.7
20260507131057 57 248 3.0 11.0 0.00 0.00 0.30 71 994.4
20260507130547 57 248 4.0 14.0 0.00 0.00 0.30 72 994.2
20260507130037 57 225 4.0 14.0 0.00 0.00 0.30 71 994.4
20260507125527 57 180 7.0 11.0 0.00 0.00 0.30 70 994.4
20260507124507 56 225 7.0 13.0 0.00 0.00 0.30 72 994.4
20260507123957 56 248 6.0 13.0 0.00 0.00 0.30 71 993.6
20260507123446 56 180 5.0 11.0 0.00 0.00 0.30 73 993.5
20260507122426 56 248 5.0 13.0 0.00 0.00 0.30 73 993.4
20260507121916 56 248 5.0 15.0 0.00 0.00 0.30 72 993.5
20260507121406 56 203 5.0 15.0 0.00 0.00 0.30 72 993.4
20260507115837 56 270 8.0 17.0 0.00 0.00 0.30 74 992.3
20260507115326 56 248 10.0 17.0 0.00 0.00 0.30 72 991.7
20260507114816 56 270 10.0 17.0 0.00 0.00 0.30 73 991.8
20260507114305 56 248 11.0 17.0 0.00 0.00 0.30 73 991.8
20260507113245 56 225 8.0 21.0 0.00 0.00 0.30 75 992.4
20260507112735 56 270 11.0 21.0 0.00 0.00 0.30 75 992.1
20260507112225 56 225 7.0 17.0 0.00 0.00 0.30 76 991.8
20260507111205 57 248 8.0 15.0 0.00 0.00 0.30 76 991.6
20260507110655 57 248 6.0 14.0 0.00 0.00 0.30 77 991.7
20260507105635 57 248 8.0 17.0 0.00 0.00 0.30 76 991.8
20260507105125 58 180 6.0 17.0 0.00 0.00 0.30 77 992.3
20260507104615 58 180 8.0 13.0 0.00 0.00 0.30 76 992.6
20260507104104 58 248 6.0 15.0 0.00 0.00 0.30 78 992.6
20260507103553 58 248 8.0 15.0 0.00 0.00 0.30 78 992.7
20260507103045 59 248 4.0 14.0 0.00 0.00 0.30 80 992.6
20260507102533 59 203 8.0 15.0 0.00 0.00 0.30 81 992.7
20260507102023 59 248 6.0 17.0 0.00 0.00 0.30 82 993.1
20260507101515 60 293 7.0 17.0 0.00 0.00 0.30 82 993.1
20260507101004 60 248 7.0 11.0 0.00 0.00 0.30 82 993.3
20260507100454 60 270 5.0 15.0 0.00 0.00 0.30 84 993.0
20260507095943 60 180 8.0 15.0 0.00 0.00 0.30 84 993.4
20260507095433 61 203 5.0 17.0 0.00 0.00 0.30 83 993.5
20260507094923 61 270 4.0 17.0 0.00 0.00 0.30 82 993.4
20260507094410 61 225 8.0 16.0 0.00 0.00 0.30 82 993.5
20260507093352 62 270 7.0 21.0 0.00 0.00 0.30 85 993.2
20260507092843 62 248 7.0 21.0 0.00 0.00 0.30 87 993.5
20260507091312 62 293 4.0 11.0 0.00 0.00 0.30 92 994.2
20260507090802 62 225 4.0 11.0 0.00 0.00 0.30 91 994.5
20260507090252 62 203 4.0 14.0 0.00 0.00 0.30 91 995.3
20260507085742 62 225 5.0 16.0 0.00 0.00 0.30 91 994.3
20260507085232 62 203 8.0 16.0 0.00 0.00 0.30 91 993.2
20260507084211 63 225 10.0 16.0 0.00 0.00 0.30 90 992.9
20260507083701 63 225 8.0 14.0 0.00 0.00 0.30 90 992.7
20260507083151 62 225 7.0 14.0 0.00 0.00 0.30 91 992.5
20260507082641 62 270 5.0 15.0 0.00 0.00 0.30 91 992.6
20260507082131 62 293 6.0 15.0 0.00 0.00 0.30 92 992.7
20260507081621 62 180 5.0 15.0 0.00 0.00 0.30 93 992.4
20260507081111 62 270 4.0 15.0 0.00 0.00 0.30 92 992.6
20260507080600 62 203 5.0 11.0 0.00 0.00 0.30 92 992.5
20260507080051 63 293 5.0 11.0 0.00 0.00 0.30 91 992.9
20260507075540 63 180 5.0 14.0 0.00 0.00 0.30 90 992.8
20260507075030 63 270 7.0 14.0 0.00 0.00 0.30 90 992.7
20260507074520 63 248 8.0 14.0 0.00 0.00 0.30 89 992.2
20260507074010 63 225 6.0 13.0 0.00 0.00 0.30 89 992.3
20260507073500 64 203 6.0 11.0 0.00 0.00 0.30 89 992.6
20260507072950 64 203 6.0 13.0 0.00 0.00 0.30 90 993.0
20260507072439 64 270 4.0 13.0 0.00 0.00 0.30 89 993.0
20260507071419 64 248 4.0 11.0 0.00 0.00 0.30 91 993.2
20260507070909 64 270 3.0 7.0 0.00 0.00 0.30 91 993.3
20260507070358 64 248 2.0 0.0 0.00 0.00 0.30 92 993.6
20260507070150 64 203 2.0 0.0 0.00 0.00 0.30 92 993.7
20260507065751 64 203 4.0 7.0 0.00 0.30 0.30 91 993.6
20260507064730 65 248 2.0 4.0 0.00 0.30 0.30 90 993.1
20260507064220 65 225 2.0 4.0 0.00 0.30 0.30 90 993.1
20260507063710 65 248 2.0 7.0 0.00 0.30 0.30 90 992.9
20260507063200 65 248 2.0 7.0 0.01 0.30 0.30 90 992.3
20260507062649 65 225 3.0 6.0 0.01 0.30 0.30 90 992.6
20260507062140 65 225 1.0 7.0 0.01 0.30 0.30 90 992.1
20260507061630 65 270 4.0 7.0 0.01 0.30 0.30 89 991.9
20260507061119 65 315 2.0 4.0 0.01 0.30 0.30 90 991.6
20260507060059 65 225 2.0 4.0 0.01 0.30 0.30 90 993.0
20260507055549 65 225 1.0 2.0 0.01 0.30 0.30 93 992.9
20260507055038 65 225 1.0 2.0 0.01 0.30 0.30 94 992.5
20260507054019 65 113 1.0 2.0 0.05 0.30 0.30 92 992.6
20260507053509 65 113 0.0 2.0 0.06 0.30 0.30 91 993.0
20260507052955 65 68 1.0 4.0 0.07 0.28 0.28 91 992.5
20260507052448 66 113 0.0 4.0 0.07 0.28 0.28 90 992.7
20260507051939 66 248 2.0 4.0 0.08 0.28 0.28 89 992.5
20260507051428 65 248 2.0 7.0 0.08 0.28 0.28 89 991.3
20260507045858 66 248 5.0 11.0 0.08 0.28 0.28 87 990.9
20260507045347 66 248 4.0 20.0 0.08 0.28 0.28 88 991.1
20260507044838 66 248 8.0 21.0 0.07 0.27 0.27 88 989.7
20260507044327 66 248 8.0 21.0 0.06 0.26 0.26 88 989.2
20260507043817 67 203 9.0 30.0 0.04 0.24 0.24 86 989.6
20260507042757 66 203 5.0 13.0 0.09 0.21 0.21 86 991.3
20260507042247 66 68 5.0 7.0 0.18 0.20 0.20 90 991.2
20260507041227 67 248 3.0 11.0 0.20 0.20 0.20 86 990.4
20260507040718 66 180 4.0 9.0 0.20 0.20 0.20 87 989.9
20260507040206 66 270 3.0 9.0 0.20 0.20 0.20 89 989.4
20260507035656 65 203 4.0 11.0 0.20 0.20 0.20 90 989.0
20260507034636 66 180 4.0 21.0 0.20 0.20 0.20 88 988.9
20260507034126 67 225 15.0 21.0 0.20 0.20 0.20 86 989.5
20260507033106 69 203 7.0 11.0 0.12 0.12 0.12 93 991.1
20260507032556 69 270 4.0 11.0 0.12 0.12 0.12 93 989.8
20260507032046 70 248 4.0 11.0 0.00 0.00 0.00 91 989.7
20260507031537 70 293 4.0 13.0 0.00 0.00 0.00 92 989.5
20260507031025 71 225 4.0 16.0 0.00 0.00 0.00 90 989.4
20260507030515 73 225 8.0 16.0 0.00 0.00 0.00 86 989.1
20260507025455 74 203 8.0 15.0 0.00 0.00 0.00 85 989.4
20260507024945 74 270 6.0 13.0 0.00 0.00 0.00 83 990.1
20260507024435 74 203 3.0 8.0 0.00 0.00 0.00 85 989.6
20260507023925 74 270 2.0 4.0 0.00 0.00 0.00 86 990.2
20260507023414 74 315 2.0 4.0 0.00 0.00 0.00 86 990.5
20260507022355 73 270 0.0 2.0 0.00 0.00 0.00 88 990.6
20260507021844 73 270 0.0 2.0 0.00 0.00 0.00 88 990.7
20260507021334 73 270 0.0 2.0 0.00 0.00 0.00 88 990.8
20260507020314 74 315 0.0 2.0 0.00 0.00 0.00 88 990.8
20260507015254 74 45 0.0 2.0 0.00 0.00 0.00 87 990.7
20260507014233 74 338 1.0 2.0 0.00 0.00 0.00 87 990.8
20260507013724 74 113 0.0 2.0 0.00 0.00 0.00 87 990.8
20260507013214 74 135 0.0 2.0 0.00 0.00 0.00 86 990.8
20260507012703 75 68 0.0 4.0 0.00 0.00 0.00 86 990.6
20260507011132 75 338 1.0 4.0 0.00 0.00 0.00 84 990.4
20260507010113 75 90 2.0 4.0 0.00 0.00 0.00 84 990.5
20260507005602 75 0 1.0 4.0 0.00 0.00 0.00 84 990.3
20260507005053 75 68 1.0 4.0 0.00 0.00 0.00 84 990.4
20260507004543 76 180 2.0 4.0 0.00 0.00 0.00 83 990.2
20260507004032 76 338 2.0 4.0 0.00 0.00 0.00 83 990.6
20260507003522 76 68 1.0 4.0 0.00 0.00 0.00 82 990.9
20260507003015 76 113 0.0 4.0 0.00 0.00 0.00 82 990.8
20260507002502 76 68 1.0 4.0 0.00 0.00 0.00 81 990.8
20260507001441 77 135 1.0 4.0 0.00 0.00 0.00 80 990.9
20260507000931 77 203 1.0 4.0 0.00 0.00 0.00 79 990.9
20260507000421 77 90 2.0 4.0 0.00 0.00 0.00 79 990.8
20260506235911 77 293 2.0 4.0 0.00 0.00 0.00 79 990.9
20260506235401 78 90 2.0 4.0 0.00 0.00 0.00 79 990.9
20260506234851 78 90 2.0 4.0 0.00 0.00 0.00 79 990.5